GLOBALSTAR M025 [-]

Last updated on July 6, 2021, 3:36 p.m. UTC

1 25770U 99031A   21186.96275826 -.00000061  00000-0  20350-3 0  9997
2 25770  51.9804 260.2107 0001647 228.1956 302.2990 11.22533339319740
UTC
Height (km)
Latitude
Longitude
Inclination
Orbital Period
UTC large
Height (km)
Speed (km/s)
/
Latitude / Longitude
Inclination (degrees)
Orbital Period (minutes)
Azimuth
Elevation
Range (km)
Doppler Factor
iOS Compass Heading
iOS Angle